Peachtree City, GA

4:24 AM EDT on July 23, 2017 (GMT -0400)
Peachtree City-Falcon

Weather History for KFFC - October, 2013

Change the Weather History Date:

Saturday, October 19, 2013

  Actual Average Record
Temperature  
Mean Temperature 58 °F 60 °F  
Max Temperature 64 °F 73 °F 87 °F (2016)
Min Temperature 51 °F 47 °F 35 °F (1996)
Degree Days  
Heating Degree Days 7 6  
Month to date heating degree days 11 67  
Since 1 July heating degree days 12 80  
Cooling Degree Days 0 1  
Month to date cooling degree days 50 33  
Year to date cooling degree days 1551 1641  
Growing Degree Days 8 (Base 50)    
Moisture  
Dew Point 55 °F    
Average Humidity 84    
Maximum Humidity 100    
Minimum Humidity 67    
Precipitation  
Precipitation 0.07 in 0.09 in 1.90 in (2004)
Month to date precipitation 1.55 2.33  
Year to date precipitation 40.90  
Snow  
Snow 0.00 in - - ()
Month to date snowfall 0.0  
Since 1 July snowfall 0.0  
Since 1 September snowfall 0.0  
Snow Depth 0.00 in    
Sea Level Pressure  
Sea Level Pressure 29.98 in    
Wind  
Wind Speed 1 mph (West)    
Max Wind Speed 12 mph    
Max Gust Speed 16 mph    
Visibility 9 miles    
Events Rain    
T = Trace of Precipitation, MM = Missing Value Source: NWS Daily Summary

Daily Weather History Graph

Daily Weather History Graph

Search for Another Location

Airport or City:

Trip Planner

Search our weather history database for the weather conditions in past years. The results will help you decide how hot, cold, wet, or windy it might be!

Date:

Astronomy

Oct. 19, 2013 Rise Set
Actual Time 7:46 AM EDT 6:59 PM EDT
Civil Twilight 7:21 AM EDT 7:24 PM EDT
Nautical Twilight 6:52 AM EDT 7:53 PM EDT
Astronomical Twilight 6:23 AM EDT 8:22 PM EDT
Moon 7:30 PM EDT (10/19) 8:20 AM EDT (10/19)
Length of Visible Light 12h 03m
Length of Day
11h 13m
Waxing Gibbous, 99% of the Moon is Illuminated
Oct 19
Waxing Gibbous
Oct 26
Last Quarter
Nov 3
New
Nov 10
First Quarter
Nov 17
Full

Hourly Weather History & Observations

Time (EDT) Temp. Dew Point Humidity Pressure Visibility Wind Dir Wind Speed Gust Speed Precip Events Conditions
12:53 AM 57.9 °F 57.0 °F 97% 29.99 in 9.0 mi Calm Calm - N/A   Mostly Cloudy
1:53 AM 57.9 °F 55.9 °F 93% 29.99 in 10.0 mi Calm Calm - 0.00 in   Overcast
2:53 AM 57.9 °F 55.9 °F 93% 29.98 in 7.0 mi Calm Calm - 0.01 in Rain Light Rain
3:53 AM 57.9 °F 55.9 °F 93% 29.96 in 8.0 mi Calm Calm - 0.00 in Rain Light Rain
4:53 AM 57.9 °F 55.9 °F 93% 29.95 in 10.0 mi Calm Calm - 0.01 in Rain Light Rain
5:53 AM 57.0 °F 55.9 °F 96% 29.97 in 9.0 mi SE 3.5 mph - 0.00 in   Mostly Cloudy
6:53 AM 57.0 °F 55.9 °F 96% 29.97 in 7.0 mi Calm Calm - 0.01 in   Mostly Cloudy
7:53 AM 57.0 °F 55.9 °F 96% 29.99 in 8.0 mi Calm Calm - 0.00 in Rain Light Rain
8:53 AM 57.9 °F 55.0 °F 90% 30.00 in 10.0 mi Calm Calm - 0.03 in Rain Light Rain
9:53 AM 59.0 °F 55.9 °F 90% 29.97 in 10.0 mi Calm Calm - 0.01 in Rain Light Rain
10:53 AM 59.0 °F 55.9 °F 90% 30.00 in 10.0 mi Calm Calm - 0.00 in   Mostly Cloudy
11:53 AM 63.0 °F 57.0 °F 81% 30.01 in 10.0 mi West 3.5 mph - N/A   Overcast
12:53 PM 62.1 °F 55.9 °F 80% 30.00 in 10.0 mi West 3.5 mph - 0.00 in Rain Light Rain
1:53 PM 63.0 °F 54.0 °F 72% 29.99 in 10.0 mi West 6.9 mph - 0.00 in   Overcast
2:53 PM 63.0 °F 55.0 °F 75% 29.97 in 10.0 mi NW 4.6 mph - 0.00 in   Mostly Cloudy
3:53 PM 62.1 °F 51.1 °F 67% 29.96 in 10.0 mi Calm Calm - N/A   Clear
4:53 PM 63.0 °F 53.1 °F 70% 29.96 in 10.0 mi West 3.5 mph - N/A   Clear
5:53 PM 62.1 °F 55.0 °F 78% 29.97 in 10.0 mi West 3.5 mph - N/A   Clear
6:53 PM 59.0 °F 57.0 °F 93% 29.98 in 10.0 mi Calm Calm - N/A   Clear
7:53 PM 57.0 °F 55.9 °F 96% 29.98 in 8.0 mi Calm Calm - N/A   Clear
8:53 PM 55.9 °F 55.0 °F 97% 29.98 in 7.0 mi Calm Calm - N/A   Clear
9:53 PM 55.0 °F 54.0 °F 96% 29.98 in 6.0 mi Calm Calm - N/A   Clear
10:53 PM 54.0 °F 53.1 °F 97% 29.99 in 7.0 mi Calm Calm - N/A   Clear
11:53 PM 52.0 °F 52.0 °F 100% 30.00 in 6.0 mi Calm Calm - N/A   Clear